When you browse on this site, cookies collect data to enhance your experience and personalize the content and advertising you see.
Visit our Privacy Policy to learn more. By continuing to use the site, you agree to this use of cookies and data.
  • In Deutschland
  • Länderverzeichnis
  • Für 7 Tage
  • Wassertemperatur
  • Wetterkarte
  • Widgets
  • user-avatar
    Anmelden

    Stündliche Wetter Armawir

    Heute, 19 September, Donnerstag

    Zeit Temperatur Niederschläge Wind Luftdruck Luftfeuchtigkeit
    00:00 +19°C° 0 mm 0 m/S 690 mmHg 37%
    01:00 +21°C° 0 mm 1 m/S 690 mmHg 37%
    02:00 +20°C° 0 mm 1 m/S 689 mmHg 38%
    03:00 +20°C° 0 mm 1 m/S 689 mmHg 38%
    04:00 +19°C° 0 mm 1 m/S 689 mmHg 39%
    05:00 +19°C° 0 mm 1 m/S 689 mmHg 40%
    06:00 +19°C° 0 mm 1 m/S 689 mmHg 42%
    07:00 +21°C° 0 mm 1 m/S 689 mmHg 36%
    08:00 +24°C° 0 mm 1 m/S 690 mmHg 31%
    09:00 +27°C° 0 mm 2 m/S 690 mmHg 26%
    10:00 +28°C° 0 mm 1 m/S 690 mmHg 24%
    11:00 +29°C° 0 mm 1 m/S 690 mmHg 21%
    12:00 +31°C° 0 mm 1 m/S 690 mmHg 19%
    13:00 +31°C° 0 mm 1 m/S 690 mmHg 18%
    14:00 +32°C° 0 mm 1 m/S 690 mmHg 16%
    15:00 +32°C° 0 mm 1 m/S 690 mmHg 15%
    16:00 +31°C° 0 mm 2 m/S 689 mmHg 17%
    17:00 +29°C° 0 mm 2 m/S 689 mmHg 20%
    18:00 +27°C° 0 mm 2 m/S 689 mmHg 22%
    19:00 +26°C° 0 mm 2 m/S 689 mmHg 23%
    20:00 +25°C° 0 mm 2 m/S 689 mmHg 25%
    21:00 +24°C° 0 mm 2 m/S 689 mmHg 26%
    22:00 +23°C° 0 mm 2 m/S 689 mmHg 28%
    23:00 +23°C° 0 mm 2 m/S 689 mmHg 30%

    Morgen, 20 September, Freitag

    Zeit Temperatur Niederschläge Wind Luftdruck Luftfeuchtigkeit
    00:00 +21°C° 0 mm 2 m/S 689 mmHg 32%
    01:00 +20°C° 0 mm 2 m/S 688 mmHg 34%
    02:00 +21°C° 0 mm 1 m/S 688 mmHg 37%
    03:00 +20°C° 0 mm 1 m/S 688 mmHg 40%
    04:00 +19°C° 0 mm 1 m/S 687 mmHg 41%
    05:00 +19°C° 0 mm 1 m/S 687 mmHg 43%
    06:00 +19°C° 0 mm 1 m/S 687 mmHg 44%
    07:00 +21°C° 0 mm 1 m/S 688 mmHg 39%
    08:00 +24°C° 0 mm 1 m/S 688 mmHg 33%
    09:00 +26°C° 0 mm 1 m/S 688 mmHg 27%
    10:00 +28°C° 0 mm 2 m/S 688 mmHg 24%
    11:00 +29°C° 0 mm 2 m/S 688 mmHg 21%
    12:00 +31°C° 0 mm 3 m/S 687 mmHg 18%
    13:00 +33°C° 0 mm 3 m/S 687 mmHg 17%
    14:00 +34°C° 0 mm 2 m/S 686 mmHg 15%
    15:00 +34°C° 0 mm 2 m/S 686 mmHg 14%
    16:00 +32°C° 0 mm 2 m/S 685 mmHg 16%
    17:00 +30°C° 0 mm 2 m/S 685 mmHg 18%
    18:00 +28°C° 0 mm 2 m/S 685 mmHg 20%
    19:00 +27°C° 0 mm 2 m/S 685 mmHg 21%
    20:00 +26°C° 0 mm 2 m/S 685 mmHg 22%
    21:00 +25°C° 0 mm 2 m/S 685 mmHg 22%
    22:00 +24°C° 0 mm 1 m/S 684 mmHg 24%
    23:00 +24°C° 0 mm 1 m/S 684 mmHg 25%

    übermorgen, 21 September, Samstag

    Zeit Temperatur Niederschläge Wind Luftdruck Luftfeuchtigkeit
    00:00 +23°C° 0 mm 1 m/S 684 mmHg 27%
    01:00 +22°C° 0 mm 1 m/S 684 mmHg 29%
    02:00 +22°C° 0 mm 1 m/S 683 mmHg 32%
    03:00 +20°C° 0 mm 2 m/S 683 mmHg 34%
    04:00 +20°C° 0 mm 2 m/S 683 mmHg 39%
    05:00 +19°C° 0 mm 3 m/S 683 mmHg 43%
    06:00 +18°C° 0 mm 4 m/S 682 mmHg 48%
    07:00 +21°C° 0 mm 4 m/S 683 mmHg 43%
    08:00 +23°C° 0 mm 4 m/S 683 mmHg 38%
    09:00 +26°C° 0 mm 5 m/S 683 mmHg 33%
    10:00 +27°C° 0 mm 5 m/S 683 mmHg 29%
    11:00 +29°C° 0 mm 5 m/S 684 mmHg 24%
    12:00 +30°C° 0 mm 5 m/S 684 mmHg 20%
    13:00 +30°C° 0 mm 7 m/S 683 mmHg 21%
    14:00 +29°C° 0 mm 9 m/S 683 mmHg 23%
    15:00 +28°C° 0 mm 11 m/S 683 mmHg 25%
    16:00 +26°C° 0 mm 10 m/S 684 mmHg 27%
    17:00 +23°C° 0 mm 9 m/S 684 mmHg 29%
    18:00 +21°C° 0 mm 8 m/S 684 mmHg 31%
    19:00 +18°C° 0 mm 8 m/S 685 mmHg 32%
    20:00 +17°C° 0 mm 7 m/S 686 mmHg 34%
    21:00 +15°C° 0 mm 6 m/S 687 mmHg 35%
    22:00 +15°C° 0 mm 6 m/S 687 mmHg 36%
    23:00 +14°C° 0 mm 5 m/S 687 mmHg 38%

    22 September, Sonntag

    Zeit Temperatur Niederschläge Wind Luftdruck Luftfeuchtigkeit
    00:00 +13°C° 0 mm 5 m/S 688 mmHg 39%
    01:00 +13°C° 0 mm 5 m/S 688 mmHg 39%
    02:00 +12°C° 0 mm 5 m/S 688 mmHg 40%
    03:00 +12°C° 0 mm 4 m/S 688 mmHg 40%
    04:00 +12°C° 0 mm 4 m/S 688 mmHg 42%
    05:00 +11°C° 0 mm 3 m/S 689 mmHg 44%
    06:00 +10°C° 0 mm 2 m/S 689 mmHg 47%
    07:00 +12°C° 0 mm 3 m/S 689 mmHg 42%
    08:00 +14°C° 0 mm 3 m/S 689 mmHg 37%
    09:00 +17°C° 0 mm 3 m/S 690 mmHg 32%
    10:00 +18°C° 0 mm 2 m/S 690 mmHg 29%
    11:00 +20°C° 0 mm 2 m/S 689 mmHg 26%
    12:00 +21°C° 0 mm 2 m/S 689 mmHg 23%
    13:00 +23°C° 0 mm 2 m/S 689 mmHg 22%
    14:00 +24°C° 0 mm 2 m/S 688 mmHg 21%
    15:00 +24°C° 0 mm 2 m/S 688 mmHg 19%
    16:00 +23°C° 0 mm 2 m/S 688 mmHg 23%
    17:00 +21°C° 0 mm 1 m/S 687 mmHg 26%
    18:00 +20°C° 0 mm 1 m/S 687 mmHg 30%
    19:00 +19°C° 0 mm 1 m/S 687 mmHg 33%
    20:00 +17°C° 0 mm 2 m/S 687 mmHg 36%
    21:00 +16°C° 0 mm 2 m/S 688 mmHg 39%
    22:00 +16°C° 0 mm 2 m/S 687 mmHg 43%
    23:00 +15°C° 0 mm 2 m/S 687 mmHg 47%

    23 September, Montag

    Zeit Temperatur Niederschläge Wind Luftdruck Luftfeuchtigkeit
    00:00 +14°C° 0 mm 2 m/S 687 mmHg 51%
    01:00 +14°C° 0 mm 2 m/S 687 mmHg 52%
    02:00 +13°C° 0 mm 2 m/S 687 mmHg 54%
    03:00 +13°C° 0 mm 2 m/S 687 mmHg 56%
    04:00 +13°C° 0 mm 2 m/S 687 mmHg 56%
    05:00 +12°C° 0 mm 2 m/S 687 mmHg 57%
    06:00 +12°C° 0 mm 2 m/S 687 mmHg 58%
    07:00 +14°C° 0 mm 2 m/S 688 mmHg 51%
    08:00 +17°C° 0 mm 2 m/S 688 mmHg 44%
    09:00 +19°C° 0 mm 2 m/S 689 mmHg 37%
    10:00 +22°C° 0 mm 1 m/S 689 mmHg 34%
    11:00 +23°C° 0 mm 1 m/S 689 mmHg 31%
    12:00 +25°C° 0 mm 1 m/S 689 mmHg 28%
    13:00 +25°C° 0 mm 1 m/S 689 mmHg 26%
    14:00 +26°C° 0 mm 2 m/S 688 mmHg 24%
    15:00 +27°C° 0 mm 2 m/S 688 mmHg 22%
    16:00 +25°C° 0 mm 1 m/S 688 mmHg 26%
    17:00 +23°C° 0 mm 1 m/S 687 mmHg 29%
    18:00 +19°C° 0 mm 0 m/S 687 mmHg 33%
    19:00 +21°C° 0 mm 1 m/S 688 mmHg 36%
    20:00 +20°C° 0 mm 1 m/S 688 mmHg 40%
    21:00 +18°C° 0 mm 2 m/S 689 mmHg 43%
    22:00 +17°C° 0 mm 2 m/S 689 mmHg 46%
    23:00 +17°C° 0 mm 2 m/S 688 mmHg 48%

    24 September, Dienstag

    Zeit Temperatur Niederschläge Wind Luftdruck Luftfeuchtigkeit
    00:00 +16°C° 0 mm 2 m/S 688 mmHg 51%
    01:00 +15°C° 0 mm 2 m/S 688 mmHg 52%
    02:00 +15°C° 0 mm 2 m/S 688 mmHg 54%
    03:00 +14°C° 0 mm 2 m/S 688 mmHg 56%
    04:00 +14°C° 0 mm 2 m/S 688 mmHg 57%
    05:00 +13°C° 0 mm 2 m/S 688 mmHg 59%
    06:00 +13°C° 0 mm 2 m/S 688 mmHg 60%
    07:00 +15°C° 0 mm 2 m/S 689 mmHg 55%
    08:00 +17°C° 0 mm 2 m/S 689 mmHg 49%
    09:00 +20°C° 0 mm 1 m/S 690 mmHg 43%
    10:00 +21°C° 0 mm 2 m/S 690 mmHg 39%
    11:00 +23°C° 0 mm 2 m/S 689 mmHg 36%
    12:00 +24°C° 0 mm 2 m/S 689 mmHg 33%
    13:00 +25°C° 0 mm 2 m/S 689 mmHg 31%
    14:00 +26°C° 0 mm 2 m/S 688 mmHg 29%
    15:00 +27°C° 0 mm 2 m/S 688 mmHg 27%
    16:00 +25°C° 0 mm 2 m/S 687 mmHg 31%
    17:00 +23°C° 0 mm 1 m/S 687 mmHg 34%
    18:00 +22°C° 0 mm 1 m/S 687 mmHg 38%
    19:00 +21°C° 0 mm 1 m/S 687 mmHg 40%
    20:00 +20°C° 0 mm 1 m/S 687 mmHg 41%
    21:00 +20°C° 0 mm 1 m/S 687 mmHg 43%
    22:00 +19°C° 0 mm 1 m/S 687 mmHg 43%
    23:00 +19°C° 0 mm 1 m/S 687 mmHg 44%
    Mehr zeigen